Regional Weather Roundup
Issued by NWS

Home | Current Version | Previous Version | Text Only | Print | Product List | Glossary Off
Versions: 1 2 3 4 5 6 7 8 9 10 11 12 13 14 15 16 17 18 19 20 21 22 23 24 25 26 27 28

000
ASUS45 KBOI 272110
RWRID

IDAHO REGIONAL WEATHER ROUNDUP
NATIONAL WEATHER SERVICE BOISE ID
300 PM MDT TUE SEP 27 2016

NOTE: "FAIR" INDICATES FEW OR NO CLOUDS BELOW 12000 FEET
WITH NO SIGNIFICANT WEATHER AND/OR OBSTRUCTIONS TO VISIBILITY

IDZ012-014-272200-
SOUTHWEST IDAHO


CITY           SKY/WX    TMP DP  RH WIND       PRES   REMARKS
BOISE          SUNNY     82  44  26 CALM      30.05F
CALDWELL       SUNNY     80  46  30 NE6       30.04F HAZE
MOUNTAIN HOME  SUNNY     83  43  24 SE8       30.04F
$$

IDZ016-017-272200-
SOUTHCENTRAL IDAHO


CITY           SKY/WX    TMP DP  RH WIND       PRES   REMARKS
BURLEY         SUNNY     78  46  32 VRB5      30.11F
JEROME         SUNNY     80  42  25 E6        30.12F
TWIN FALLS     SUNNY     78  48  34 NE9       30.12F
$$

IDZ019>023-272200-
SOUTHEAST IDAHO


CITY           SKY/WX    TMP DP  RH WIND       PRES   REMARKS
IDAHO FALLS    SUNNY     73  38  27 W5        30.18F
POCATELLO      SUNNY     78  43  28 NW5       30.16F
REXBURG        SUNNY     73  41  31 MISG      30.18F
$$

IDZ006-010-011-018-031-032-272200-
CENTRAL IDAHO MOUNTAINS


CITY           SKY/WX    TMP DP  RH WIND       PRES   REMARKS
MCCALL         SUNNY     77  38  24 SW6       30.15F
HAILEY         SUNNY     73  43  33 SE9       30.20F
STANLEY          N/A     75  30  19 VRB5      30.24F
SALMON         SUNNY     73  43  33 W3        30.12F
CHALLIS        SUNNY     76  37  24 NE3       30.15F
$$

IDZ002-004-006-007-026-272200-
NORTHERN IDAHO


CITY           SKY/WX    TMP DP  RH WIND       PRES   REMARKS
LEWISTON       SUNNY     84  46  26 VRB5      30.00F
LOWELL           N/A     80  54  40 NW3       29.99F
COEUR D`ALENE  SUNNY     79  48  33 SW10G16   30.04F
MULLAN PASS    MOSUNNY   65  44  46 VRB3      30.21S
$$




USA.gov is the U.S. government's official web portal to all federal, state and local government web resources and services.